Albuquerque, NM

3:50 AM MDT on June 20, 2018 (GMT -0600)
Albuquerque International Sunport

Weather History for KABQ - August, 2017

Change the Weather History Date:

Saturday, August 19, 2017

  Actual Average Record
Temperature  
Mean Temperature 81 °F 76 °F  
Max Temperature 91 °F 87 °F 99 °F (1934)
Min Temperature 70 °F 65 °F 51 °F (1897)
Degree Days  
Heating Degree Days 0 0  
Month to date heating degree days 0 0  
Since 1 June heating degree days 0 4  
Since 1 July heating degree days 0 0  
Cooling Degree Days 16 11  
Month to date cooling degree days 242 223  
Year to date cooling degree days 1198 1034  
Since 1 June cooling degree days 1119 936  
Growing Degree Days 30 (Base 50)    
Moisture  
Dew Point 46 °F    
Average Humidity 35    
Maximum Humidity 53    
Minimum Humidity 17    
Precipitation  
Precipitation 0.00 in 0.05 in 0.87 in (1940)
Month to date precipitation 0.75 1.06  
Year to date precipitation 4.69 5.76  
Snow  
Snow 0.00 in - - ()
Month to date snowfall 0.0  
Since 1 June snowfall T  
Since 1 July snowfall 0.0  
Snow Depth 0.00 in    
Sea Level Pressure  
Sea Level Pressure 29.90 in    
Wind  
Wind Speed 11 mph (SE)    
Max Wind Speed 32 mph    
Max Gust Speed 36 mph    
Visibility 10 miles    
Events Thunderstorm    
T = Trace of Precipitation, MM = Missing Value Source: NWS Daily Summary

Daily Weather History Graph

Daily Weather History Graph

Search for Another Location

Airport or City:

Astronomy

Aug. 19, 2017 Rise Set
Actual Time 6:29 AM MDT 7:49 PM MDT
Civil Twilight 6:03 AM MDT 8:16 PM MDT
Nautical Twilight 5:31 AM MDT 8:47 PM MDT
Astronomical Twilight 4:58 AM MDT 9:20 PM MDT
Moon 4:07 AM MDT (8/19) 6:25 PM MDT (8/19)
Length of Visible Light 14h 13m
Length of Day
13h 19m
Waning Crescent, 5% of the Moon is Illuminated
Aug 19
Waning Crescent
Aug 21
New
Aug 29
First Quarter
Sep 6
Full
Sep 13
Last Quarter

Hourly Weather History & Observations

Time (MDT) Temp. Dew Point Humidity Pressure Visibility Wind Dir Wind Speed Gust Speed Precip Events Conditions
12:52 AM 77.0 °F 45.0 °F 32% 29.89 in 10.0 mi Calm Calm - N/A   Mostly Cloudy
1:52 AM 78.1 °F 45.0 °F 31% 29.89 in 10.0 mi Calm Calm - N/A   Mostly Cloudy
2:52 AM 75.0 °F 46.9 °F 37% 29.90 in 10.0 mi East 3.5 mph - N/A   Overcast
3:52 AM 73.0 °F 48.9 °F 42% 29.89 in 10.0 mi East 6.9 mph - N/A   Overcast
4:52 AM 72.0 °F 51.1 °F 48% 29.89 in 10.0 mi SE 5.8 mph - N/A   Mostly Cloudy
5:52 AM 70.0 °F 51.1 °F 51% 29.90 in 10.0 mi ESE 6.9 mph - N/A   Mostly Cloudy
6:52 AM 70.0 °F 51.1 °F 51% 29.92 in 10.0 mi SE 4.6 mph - N/A   Mostly Cloudy
7:52 AM 71.1 °F 51.1 °F 49% 29.94 in 10.0 mi ESE 4.6 mph - N/A   Mostly Cloudy
8:52 AM 73.9 °F 52.0 °F 46% 29.96 in 10.0 mi West 4.6 mph - N/A   Mostly Cloudy
9:52 AM 75.9 °F 53.1 °F 45% 29.96 in 10.0 mi SW 6.9 mph - N/A   Mostly Cloudy
10:52 AM 79.0 °F 52.0 °F 39% 29.95 in 10.0 mi SW 9.2 mph - N/A   Mostly Cloudy
11:52 AM 82.9 °F 45.0 °F 26% 29.93 in 10.0 mi South 4.6 mph - N/A   Mostly Cloudy
12:52 PM 86.0 °F 44.1 °F 23% 29.89 in 10.0 mi SW 11.5 mph 18.4 mph N/A   Mostly Cloudy
1:52 PM 88.0 °F 37.9 °F 17% 29.86 in 10.0 mi SW 13.8 mph 19.6 mph N/A   Overcast
2:52 PM 90.0 °F 46.0 °F 22% 29.82 in 10.0 mi SSW 10.4 mph - N/A   Overcast
3:52 PM 90.0 °F 39.0 °F 17% 29.81 in 10.0 mi SSW 8.1 mph 16.1 mph N/A   Mostly Cloudy
4:18 PM 90.0 °F 37.0 °F 15% 30.09 in 10.0 mi Calm Calm - N/A Thunderstorm Mostly Cloudy
4:52 PM 88.0 °F 43.0 °F 21% 29.80 in 10.0 mi East 27.6 mph 32.2 mph N/A Thunderstorm Mostly Cloudy
5:00 PM 87.1 °F 44.1 °F 22% 30.08 in 10.0 mi East 31.1 mph - N/A   Mostly Cloudy
5:52 PM 84.0 °F 43.0 °F 24% 29.81 in 10.0 mi East 24.2 mph - N/A   Overcast
6:52 PM 79.0 °F 45.0 °F 30% 29.83 in 10.0 mi East 23.0 mph 31.1 mph N/A   Mostly Cloudy
7:52 PM 77.0 °F 48.0 °F 36% 29.86 in 10.0 mi East 18.4 mph 27.6 mph N/A   Mostly Cloudy
8:52 PM 75.9 °F 46.9 °F 36% 29.89 in 10.0 mi East 19.6 mph 26.5 mph N/A   Mostly Cloudy
9:52 PM 77.0 °F 45.0 °F 32% 29.89 in 10.0 mi East 16.1 mph - N/A   Overcast
10:52 PM 75.9 °F 46.0 °F 35% 29.90 in 10.0 mi SW 5.8 mph - N/A   Mostly Cloudy
11:52 PM 75.0 °F 45.0 °F 34% 29.90 in 10.0 mi SSE 8.1 mph - N/A   Overcast